Regional Weather Roundup
Issued by NWS Charleston, SC

Current Version | Previous Version | Text Only | Print | Product List | Glossary Off
Versions: 1 2 3 4 5 6 7 8 9 10 11 12 13 14 15 16 17 18 19 20 21 22 23 24 25 26 27 28 29 30 31 32 33 34 35 36 37 38 39 40 41 42 43 44 45 46 47 48 49 50

000
ASUS42 KCHS 222311
RWRCHS

REGIONAL WEATHER ROUNDUP
NATIONAL WEATHER SERVICE CHARLESTON SC
600 PM EST WED FEB 22 2017

NOTE: "FAIR" INDICATES FEW OR NO CLOUDS BELOW 12,000 FEET WITH NO
SIGNIFICANT WEATHER AND/OR OBSTRUCTIONS TO VISIBILITY.

NOT ALL STATIONS ARE QUALITY CONTROLLED. USE DATA WITH CAUTION...
ESPECIALLY DEWPOINT OBSERVATIONS.

SCZ027-030-031-034>040-042>050-230000-
...SOUTHEAST SOUTH CAROLINA...

CITY           SKY/WX    TMP DP  RH WIND       PRES   REMARKS
N CHARLESTON   CLOUDY    68  58  70 E13       29.87F
WATERFRONT PRK   N/A     65  61  87 E8        29.86F
MOUNT PLEASANT FAIR      66  61  82 NE5       29.88F
JOHNS ISLAND   FAIR      66  61  82 E9        29.87S
PINOPOLIS        N/A     68  59  73 SE7       29.80F
MONCKS CORNER  FAIR      66  55  68 E5        29.88F
SUMMERVILLE    FAIR      68  59  73 E3        29.88F
BEAUFORT MCAS  CLOUDY    68  61  78 E8        29.86R
BEAUFORT ARPT  FAIR      66  59  77 E8        29.86R
HILTON HEAD IS PTCLDY    66  61  82 E9        29.86R
WALTERBORO     CLOUDY    68  57  68 E8        29.88R
ALLENDALE      CLOUDY    70  57  64 SE6       29.85S

...SOUTHERN MIDLANDS AND PEE DEE...

CITY           SKY/WX    TMP DP  RH WIND       PRES   REMARKS
GEORGETOWN     FAIR      64  57  77 E3        29.91S
KINGSTREE      FAIR      64  54  68 E6        29.91R
ORANGEBURG     MOCLDY    70  56  61 E6        29.87S
BARNWELL       FAIR      72  59  64 E5        29.87R
AIKEN          FAIR      66  55  68 E3        29.91R
MANNING        FAIR      66  45  45 MISG      29.90S
COLUMBIA       MOCLDY    71  53  52 SE7       29.87S
SUMTER         MOCLDY    70  53  54 SE10      29.87R
FLORENCE       CLOUDY    69  50  50 S8        29.91R
MYRTLE BEACH   PTCLDY    64  57  77 E9        29.93S
N MYRTLE BEACH MOCLDY    65  56  72 E6        29.92S

$$

GAZ063-065-086>088-099>101-113>116-118-119-134>141-150-230000-
...SOUTHEAST GEORGIA...

CITY           SKY/WX    TMP DP  RH WIND       PRES   REMARKS
SAVANNAH ARPT  CLOUDY    67  60  78 E10       29.84S
HUNTER AAF     CLOUDY    65  65  99 E7        29.81S
FORT STEWART   LGT RAIN  64  63  94 E10       29.80S
STATESBORO     RAIN      65  65 100 CALM      29.85S
SYLVANIA       CLOUDY   N/A N/A N/A CALM      29.86S
CLAXTON        CLOUDY   N/A N/A N/A NE3       29.84S

...CSRA...CENTRAL AND FAR SOUTHEAST GEORGIA...

CITY           SKY/WX    TMP DP  RH WIND       PRES   REMARKS
THOMSON        PTCLDY    68  63  84 CALM      29.92R
AUGUSTA-BUSH   CLOUDY    71  58  63 E3        29.85S
AUGUSTA-DANIEL MOCLDY    71  55  56 SE5       29.87R
SWAINSBORO     DRIZZLE   64  63  94 E8        29.87R
VIDALIA        LGT RAIN  64  64 100 E10       29.83S
EASTMAN        DRIZZLE   67  56  67 E6        29.86R
HAZLEHURST     LGT RAIN  65  65 100 NE7       29.81S
ALMA           RAIN      64  64 100 N3        29.80S FOG
WAYCROSS       CLOUDY    66  66 100 CALM      29.79S
JESUP          LGT RAIN  66  63  88 NE7       29.80S
BAXLEY         DRIZZLE   64  64 100 NE8       29.80F
BRUNSWICK      MOCLDY    68  66  94 E8        29.80S
SAINT SIMONS   LGT RAIN  65  63  93 CALM      29.79R

$$

SCZ027-028-034-036>038-045-046-048>050-GAZ119-141-230000-
...LAKE AND SUPPLEMENTAL COASTAL OBSERVATIONS...

STATION/POSITION TIME  TEMP    WIND        PRES    WAVE   SWELL
                       AIR SEA DIR/SP/G            HT/PER HT/PER/DIR
                 (UTC) (F)     (DEG/KT/KT) (MB)    (FT/S) (FT/S/D)
WINYAH BAY       2145   65      80/  6     1012.0
LAKE MURRAY      2220   70     110/  4/  6 1011.2S
ACE BASIN NERRS  NOT AVBL
FORT PULASKI     2242   64 61   80/ 11/ 14 1010.4S
SAPELO ISLAND    2200   66      80/  9     1009.0

$$

ANZ835-935-AMZ111-154-330-350-352-354-370-450-454-472-230000-
...C-MAN AND BUOY OBSERVATIONS...

STATION/POSITION TIME  TEMP    WIND        PRES    WAVE   SWELL
                       AIR SEA DIR/SP/G            HT/PER HT/PER/DIR
                 (UTC) (F)     (DEG/KT/KT) (MB)    (FT/S) (FT/S/D)
BUOY 41004       2150   69 70  120/ 19/ 25 1010.5    6/ 6   2/180/14
BUOY 41008       2150   65 63   70/ 12/ 14 1008.4    6/ 8   5/130/ 8
FOLLY BEACH CMAN 2200   63      70/ 11/ 12 1012.1F
CAPERS NEARSHORE 2208   62 59   90/  6/ 10 1011.7S
FRIPP NEARSHORE  2208   65 60  100/ 12/ 16 1010.2F


STATION/POSITION TIME  TEMP    WIND        PRES    WAVE   SWELL
                       AIR SEA DIR/SP/G            HT/PER HT/PER/DIR
                 (UTC) (F)     (DEG/KT/KT) (MB)    (FT/S) (FT/S/D)
5E ST. MARYS GA  2230      63                N/A     6/ 7
FRYING PAN BUOY  2250   69 69  140/ 12/ 16   N/A     4/ 6   2/ 70/ 8
BUOY 41025       2250   67 75  130/  8/ 12 1014.8R   3/ 8   2/ 70/ 8
CAPE LOOKOUT NC  2200   65     150/  5/  5 1013.9S
BUOY 41002       2150   66 70  100/ 14/ 17 1014.7    5/11   5/ 50/11
BUOY 41010       NOT AVBL
ST AUGUSTINE FL  2300   66 68  100/ 14/ 16 1008.2R


$$



USA.gov is the U.S. government's official web portal to all federal, state and local government web resources and services.